To NAV CANADA Home Page Login to a new session Search on AWWS site Feedback and Comments Disclaimer Vers la page française équivalente Tips FAQ What's new on the site To the Forecasts and Observations / NOTAM section To "File a Flight Plan" website Publications and other links Update of the User's profile FIC Telephone Numbers My Weather Data Folder Route Weather Data Regional Weather Data Local Weather Data To the Forecasts and Observations / NOTAM section
Request Generated 04/19/2015 at 04:32:51 UTC . Weather information available at that time is displayed.

METAR/TAF

CHESTERFIELD INLET/NU    

LWIS CYCS 190400Z AUTO 29014KT M13/M16 A3024=
LWIS CYCS 190300Z AUTO 29015KT M14/M16 A3024=
LWIS CYCS 190200Z AUTO 28015KT M14/M17 A3024=

CYCS - No TAF is issued for this station

Your time UTC time
Weather data provided by Environment Canada and NAV CANADA